Weather in Mogadishu

Somalia     2˚02′38″N   45˚21′15″E
temp.,
°C
wind,
m/s
gust,
m/s
humid.,
%
clouds,
%
prec.,
mm/h
press.,
hPa
HPBL,
m
1 december, tue
tue100:00+26˚e797920 0.0 1011597
03:00+26˚ene698019 0.0 1010594
06:00+25˚ne57810 0.0 1011474
09:00+28˚ene78720 0.0 1013737
12:00+29˚e88691 0.0 1011922
15:00+28˚e910740 0.0 1009760
18:00+27˚e811780 0.0 1010710
21:00+26˚e911790 0.0 1012615
2 december, wed
wed200:00+26˚e811800 0.0 1011606
03:00+26˚ene7108038 0.0 1011649
06:00+25˚ene698076 0.0 1012568
09:00+27˚ene8107456 0.0 1014760
12:00+29˚e9106510 0.0 10111040
15:00+28˚e9107047 0.0 1009729
18:00+26˚e8117887 0.0 1009575
21:00+26˚e8118083 0.0 1012582
3 december, thu
thu300:00+26˚ene9128035 0.0 1011747
03:00+26˚ene7108268 0.0 1010712
06:00+25˚ene7108397 0.0 1012748
09:00+27˚ene897365 0.0 1015984
12:00+28˚e886660 0.0 10131074
15:00+27˚e776853 0.0 1010883
18:00+26˚e787431 0.0 1011623
21:00+26˚e797830 0.0 1013531
4 december, fri
fri400:00+26˚e7108172 0.0 1012592
03:00+25˚e798285 0.0 1011574
06:00+25˚e588278 0.0 1013573
09:00+27˚e557175 0.0 1015999
12:00+28˚ese446562 0.0 1013826
15:00+28˚ese446669 0.0 1010630
18:00+27˚ese567373 0.0 1011441
21:00+26˚ese577763 0.0 1013418
5 december, sat
sat500:00+26˚ese467954 0.0 1011328
03:00+26˚ese458374 0.0 1010332
06:00+26˚e3483100 0.0 1012413
09:00+27˚ese3272100 0.0 1014731
12:00+28˚sse4370100 0.0 1011669
15:00+28˚sse557080 0.0 1009456
18:00+27˚sse56747 0.0 1010447
21:00+26˚se567512 0.0 1012439